Appleton, WI

12:36 PM CST on November 17, 2017 (GMT -0600)
Outagamie County Regional

Weather History for KATW - December, 2012

Change the Weather History Date:

Sunday, December 23, 2012

  Actual Average Record
Temperature  
Mean Temperature 18 °F -  
Max Temperature 24 °F 25 °F 51 °F (2015)
Min Temperature 12 °F 11 °F -21 °F (1983)
Degree Days  
Heating Degree Days 47    
Moisture  
Dew Point 13 °F    
Average Humidity 82    
Maximum Humidity 100    
Minimum Humidity 64    
Precipitation  
Precipitation 0.00 in - - ()
Sea Level Pressure  
Sea Level Pressure 29.98 in    
Wind  
Wind Speed 8 mph (NNW)    
Max Wind Speed 12 mph    
Max Gust Speed 18 mph    
Visibility 10 miles    
Events      
Averages and records for this station are not official NWS values.
T = Trace of Precipitation, MM = Missing Value Source: NWS Daily Summary

Daily Weather History Graph

Daily Weather History Graph

Search for Another Location

Airport or City:

Trip Planner

Search our weather history database for the weather conditions in past years. The results will help you decide how hot, cold, wet, or windy it might be!

Date:

Astronomy

Dec. 23, 2012 Rise Set
Actual Time 7:27 AM CST 4:19 PM CST
Civil Twilight 6:54 AM CST 4:52 PM CST
Nautical Twilight 6:17 AM CST 5:29 PM CST
Astronomical Twilight 5:42 AM CST 6:04 PM CST
Moon 1:14 PM CST (12/23) 3:05 AM CST (12/23)
Length of Visible Light 9h 58m
Length of Day
8h 51m
Waxing Gibbous, 82% of the Moon is Illuminated
Dec 23
Waxing Gibbous
Dec 28
Full
Jan 4
Last Quarter
Jan 11
New
Jan 18
First Quarter

Hourly Weather History & Observations

Time (CST) Temp. Windchill Dew Point Humidity Pressure Visibility Wind Dir Wind Speed Gust Speed Precip Events Conditions
12:15 AM 14.0 °F 2.9 °F 10.4 °F 86% 29.91 in 10.0 mi West 8.1 mph - N/A   Clear
12:35 AM 14.0 °F 2.0 °F 10.4 °F 86% 29.91 in 10.0 mi West 9.2 mph - N/A   Clear
12:55 AM 12.2 °F -1.0 °F 12.2 °F 100% 29.92 in 10.0 mi West 10.4 mph - N/A   Clear
1:15 AM 12.2 °F -1.0 °F 12.2 °F 100% 29.92 in 10.0 mi West 10.4 mph - N/A   Clear
1:35 AM 12.2 °F -1.8 °F 12.2 °F 100% 29.93 in 10.0 mi West 11.5 mph - N/A   Clear
1:55 AM 12.2 °F -1.0 °F 12.2 °F 100% 29.93 in 10.0 mi NW 10.4 mph - N/A   Clear
2:15 AM 15.8 °F 3.4 °F 10.4 °F 79% 29.93 in 10.0 mi NW 10.4 mph - N/A   Clear
2:35 AM 15.8 °F 4.2 °F 10.4 °F 79% 29.92 in 10.0 mi NNW 9.2 mph - N/A   Clear
2:55 AM 15.8 °F 3.4 °F 10.4 °F 79% 29.93 in 10.0 mi NNW 10.4 mph - N/A   Clear
3:15 AM 15.8 °F 3.4 °F 10.4 °F 79% 29.93 in 10.0 mi NNW 10.4 mph - N/A   Clear
3:35 AM 14.0 °F 2.0 °F 10.4 °F 86% 29.94 in 10.0 mi NNW 9.2 mph - N/A   Scattered Clouds
3:55 AM 17.6 °F 6.4 °F 12.2 °F 79% 29.94 in 10.0 mi North 9.2 mph - N/A   Mostly Cloudy
5:45 AM 19.4 °F 9.5 °F 17.6 °F 93% 29.97 in 10.0 mi North 8.1 mph - N/A   Overcast
6:45 AM 21.2 °F 10.1 °F 17.6 °F 86% 29.99 in 10.0 mi North 10.4 mph - N/A   Overcast
7:45 AM 21.2 °F 10.9 °F 17.6 °F 86% 30.02 in 10.0 mi NNW 9.2 mph - N/A   Overcast
8:45 AM 21.2 °F 9.5 °F 17.6 °F 86% 30.03 in 10.0 mi North 11.5 mph 18.4 mph N/A   Overcast
9:45 AM 23.0 °F 11.7 °F 17.6 °F 80% 30.05 in 10.0 mi North 11.5 mph - N/A   Mostly Cloudy
10:45 AM 23.0 °F 13.1 °F 15.8 °F 74% 30.03 in 10.0 mi North 9.2 mph - N/A   Mostly Cloudy
11:45 AM 24.8 °F 16.9 °F 15.8 °F 69% 30.02 in 10.0 mi NNW 6.9 mph - N/A   Mostly Cloudy
12:45 PM 24.8 °F 20.5 °F 15.8 °F 69% 30.02 in 10.0 mi Variable 3.5 mph - N/A   Mostly Cloudy
1:45 PM 24.8 °F 17.9 °F 14.0 °F 64% 30.01 in 10.0 mi NW 5.8 mph - N/A   Mostly Cloudy
2:45 PM 23.0 °F 18.4 °F 14.0 °F 68% 30.02 in 10.0 mi WNW 3.5 mph - N/A   Mostly Cloudy
3:45 PM 21.2 °F 16.4 °F 14.0 °F 74% 30.02 in 10.0 mi NW 3.5 mph - N/A   Mostly Cloudy
4:45 PM 19.4 °F 14.3 °F 14.0 °F 80% 30.02 in 10.0 mi North 3.5 mph - N/A   Mostly Cloudy
6:45 PM 17.6 °F - 10.4 °F 73% 30.04 in 10.0 mi Calm Calm - N/A   Scattered Clouds
9:55 PM 17.6 °F - 12.2 °F 79% 30.00 in 10.0 mi Calm Calm - N/A   Clear
10:15 PM 17.6 °F - 14.0 °F 86% 30.00 in 10.0 mi Calm Calm - N/A   Clear
10:35 PM 15.8 °F - 12.2 °F 86% 30.00 in 10.0 mi Calm Calm - N/A   Clear
10:45 PM 15.8 °F 10.2 °F 12.2 °F 86% 30.00 in 10.0 mi Variable 3.5 mph - N/A   Scattered Clouds
11:15 PM 19.4 °F 14.3 °F 12.2 °F 74% 30.01 in 10.0 mi North 3.5 mph - N/A   Clear
11:35 PM 17.6 °F 10.7 °F 12.2 °F 79% 30.00 in 10.0 mi North 4.6 mph - N/A   Clear
11:55 PM 17.6 °F 12.3 °F 12.2 °F 79% 30.00 in 10.0 mi North 3.5 mph - N/A   Clear